Volver al catálogo

SL-14 DEB

ActivoPO
NORAD 19134·DEBRIS·🇷🇺 Russia

Lanzado Oct 26, 1978 desde Plesetsk Cosmodrome

Loading…

Próximos Pases (próximas 24 horas)

TLE

ActualizadoSource: Space-Track

Época: Sep 14, 2026, 15:07 UTC

1 19134U 78100G   26257.62992921  .00006861  00000-0  23119-1 0  9994
2 19134  82.2948  18.5898 0181655 197.6452 176.1834 12.93646684162190

Sigue SL-14 DEB en tiempo real con AllMySat

Download on the App Store